Weather History for PANN - August, 2014

Change the Weather History Date:

Sunday, August 10, 2014

  Actual Average Record
Temperature  
Mean Temperature 62 °F -  
Max Temperature 75 °F 67 °F 83 °F (2005)
Min Temperature 57 °F 45 °F 39 °F (2007)
Degree Days  
Heating Degree Days 2    
Growing Degree Days 12 (Base 50)    
Moisture  
Dew Point 50 °F    
Average Humidity 59    
Maximum Humidity 96    
Minimum Humidity 37    
Precipitation  
Precipitation 0.16 in - - ()
Sea Level Pressure  
Sea Level Pressure 29.73 in    
Wind  
Wind Speed 8 mph (ENE)    
Max Wind Speed 18 mph    
Max Gust Speed 20 mph    
Visibility 10 miles    
Events Rain    
Averages and records for this station are not official NWS values.
T = Trace of Precipitation, MM = Missing Value Source: NWS Daily Summary

Daily Weather History Graph

Daily Weather History Graph

Search for Another Location

Airport or City:

Trip Planner

Search our weather history database for the weather conditions in past years. The results will help you decide how hot, cold, wet, or windy it might be!

Date:

Astronomy

Aug. 10, 2014 Rise Set
Actual Time 5:29 AM AKDT 10:31 PM AKDT
Civil Twilight 4:15 AM AKDT 11:43 PM AKDT
Nautical Twilight 2:34 AM AKDT 1:29 AM AKDT
Astronomical Twilight Sun does not set Sun does not set
Moon 9:43 PM AKDT (8/10) 5:59 AM AKDT (8/10)
Length of Visible Light 19h 28m
Length of Day
17h 02m
Full, 100% of the Moon is Illuminated
Aug 10
Full
Aug 17
Last Quarter
Aug 25
New
Sep 2
First Quarter
Sep 8
Full

Hourly Weather History & Observations

Time (AKDT) Temp. Dew Point Humidity Pressure Visibility Wind Dir Wind Speed Gust Speed Precip Events Conditions
12:53 AM 61.0 °F 46.0 °F 58% 29.64 in 10.0 mi ENE 5.8 mph - N/A   Clear
1:53 AM 57.9 °F 46.9 °F 67% 29.65 in 10.0 mi ESE 3.5 mph - N/A   Clear
2:53 AM 57.9 °F 46.0 °F 65% 29.65 in 10.0 mi East 6.9 mph - N/A   Clear
3:53 AM 57.9 °F 46.0 °F 65% 29.66 in 10.0 mi East 5.8 mph - N/A   Clear
4:53 AM 59.0 °F 46.0 °F 62% 29.67 in 10.0 mi East 8.1 mph - N/A   Clear
5:53 AM 57.9 °F 46.0 °F 65% 29.68 in 10.0 mi East 11.5 mph - N/A   Clear
6:53 AM 57.9 °F 46.0 °F 65% 29.69 in 10.0 mi East 9.2 mph - N/A   Clear
7:53 AM 60.1 °F 46.9 °F 62% 29.70 in 10.0 mi East 4.6 mph - N/A   Clear
8:53 AM 63.0 °F 48.9 °F 60% 29.70 in 10.0 mi East 3.5 mph - N/A   Clear
9:53 AM 66.0 °F 48.0 °F 52% 29.70 in 10.0 mi ENE 8.1 mph - N/A   Clear
10:53 AM 68.0 °F 46.0 °F 45% 29.70 in 10.0 mi ENE 13.8 mph 19.6 mph N/A   Clear
11:53 AM 68.0 °F 48.0 °F 49% 29.70 in 10.0 mi East 10.4 mph 18.4 mph N/A   Clear
12:53 PM 70.0 °F 48.9 °F 47% 29.70 in 10.0 mi East 9.2 mph - N/A   Clear
1:53 PM 72.0 °F 50.0 °F 46% 29.70 in 10.0 mi East 8.1 mph - N/A   Clear
3:53 PM 73.0 °F 50.0 °F 44% 29.69 in - ENE 6.9 mph - N/A   Unknown
4:53 PM 73.9 °F 50.0 °F 43% 29.68 in 10.0 mi NE 8.1 mph - N/A   Clear
5:53 PM 75.9 °F 48.0 °F 37% 29.67 in 10.0 mi NE 6.9 mph - N/A   Clear
6:53 PM 75.0 °F 46.9 °F 37% 29.66 in 10.0 mi NE 6.9 mph - N/A   Clear
7:53 PM 73.9 °F 46.9 °F 38% 29.65 in 10.0 mi NNE 9.2 mph - N/A   Clear
8:53 PM 71.1 °F 51.1 °F 49% 29.65 in 10.0 mi ENE 9.2 mph - N/A   Partly Cloudy
9:53 PM 68.0 °F 51.1 °F 55% 29.66 in 10.0 mi ENE 6.9 mph - N/A   Clear
10:53 PM 66.0 °F 50.0 °F 56% 29.67 in 10.0 mi ENE 8.1 mph - N/A   Clear
11:53 PM 64.9 °F 48.9 °F 56% 29.67 in 10.0 mi East 9.2 mph - N/A   Clear